Flag for Germany Weather past 2 weeks in Cuxhaven, Lower Saxony, Germany

Now
32 °F

Passing clouds.


Feels Like: 25 °F
Forecast: 32 / 34 °F
Wind: 8 mph from Southwest

Location: Nordholz

Current Time: Dec 26, 2014 at 5:35:01 PM

Latest Report: Dec 26, 2014 at 4:20 PM


Visibility: N/A

Pressure: 30.27 "Hg

Humidity: 87%

Dew point: 28 °F

Location of CuxhavenLocation

Historic Weather in Cuxhaven — Graph

°F

Cuxhaven temperature yesterday

Maximum temperature yesterday: 45 °F (at 6:45 AM)
Minimum temperature yesterday: 32 °F (at 10:20 PM)
Average temperature yesterday: 39 °F

Past Weeks' High & Low Weather Summary

 TemperatureHumidityPressure
High52 °F (Dec 18, 6:20 PM)100% (Dec 12, 7:20 AM)30.36 "Hg (Dec 12, 7:20 AM)
Low27 °F (Dec 26, 4:20 AM)66% (Dec 25, 10:20 AM)29.12 "Hg (Dec 12, 12:20 PM)
Average42 °F89%29.77 "Hg
* Reported Dec 11 4:20 PM — Dec 26 4:20 PM, Cuxhaven, Weather by CustomWeather, © 2014

Note: Actual official high and low records may vary slightly from our data, if they occured in-between our weather recording intervals... More about our weather records

Advertising

Cuxhaven weather history for previous 24 hours

 ConditionsComfort  
Time TempWeatherWind HumidityBarometerVisibility
4:20 PM
Dec 26
32 °FPassing clouds.8 mph87%30.27 "HgN/A
3:20 PM36 °FScattered clouds.9 mph81%30.27 "HgN/A
2:20 PM36 °FPartly sunny.10 mph81%30.30 "HgN/A
1:20 PM36 °FPassing clouds.8 mph81%30.30 "HgN/A
12:20 PM34 °FScattered clouds.8 mph81%30.33 "HgN/A
11:20 AM32 °FPartly sunny.6 mph87%30.36 "HgN/A
10:20 AM30 °FBroken clouds.6 mph86%30.36 "HgN/A
9:20 AM27 °FPartly sunny.3 mph93%30.36 "HgN/A
8:20 AM27 °FPassing clouds.2 mph93%30.36 "HgN/A
7:20 AM27 °FPassing clouds.No wind100%30.36 "HgN/A
6:20 AM27 °FPassing clouds.1 mph93%30.33 "HgN/A
5:20 AM27 °FChilly.1 mph93%30.33 "HgN/A
4:20 AM27 °FChilly.2 mph93%30.33 "HgN/A
3:20 AM28 °FChilly.1 mph86%30.33 "HgN/A
2:20 AM30 °FChilly.2 mph86%30.33 "HgN/A
1:20 AM30 °FChilly.5 mph86%30.30 "HgN/A
12:20 AM30 °FChilly.3 mph86%30.30 "HgN/A
11:20 PM
Dec 25
32 °FChilly.5 mph80%30.30 "HgN/A
10:20 PM32 °FChilly.6 mph80%30.27 "HgN/A
9:20 PM34 °FChilly.7 mph81%30.27 "HgN/A
8:20 PM34 °FChilly.9 mph81%30.24 "HgN/A
7:20 PM36 °FChilly.9 mph81%30.21 "HgN/A
6:20 PM36 °FChilly.12 mph81%30.18 "HgN/A
5:20 PM36 °FPassing clouds.10 mph87%30.12 "HgN/A
Weather by CustomWeather, © 2014

See weather overviewHow to use our weather pages